Terminal Aerodrome Forecast
Issued by NWS Quad Cities IA IL

Home | Current Version | Previous Version | Text Only | Print | Product List | Glossary On
Versions: 1 2 3 4 5 6 7 8 9 10 11 12 13 14 15 16 17
000
FTUS43 KDVN 201100
TAFDBQ
TAF
KDBQ 201120Z 2012/2112 20008KT P6SM SCT060
     FM201500 20011KT P6SM SCT050 BKN250
     FM210100 17007KT P6SM SKC=

USA.gov is the U.S. government's official web portal to all federal, state and local government web resources and services.